Hourly Weather Russkiy Kolodec

Today, 18 April, Sunday

Time Temperature Precipitation Wind Pressure Humidity
00:00 +8°C° 0 mm 1 mps 762 mmHg 72%
01:00 +8°C° 0 mm 1 mps 762 mmHg 72%
02:00 +8°C° 0 mm 1 mps 762 mmHg 72%
03:00 +8°C° 0 mm 1 mps 761 mmHg 72%
04:00 +7°C° 0 mm 2 mps 761 mmHg 73%
05:00 +7°C° 0 mm 2 mps 761 mmHg 74%
06:00 +7°C° 0 mm 2 mps 761 mmHg 76%
07:00 +8°C° 0 mm 3 mps 761 mmHg 73%
08:00 +9°C° 0 mm 3 mps 761 mmHg 70%
09:00 +10°C° 0 mm 3 mps 761 mmHg 66%
10:00 +11°C° 0 mm 3 mps 761 mmHg 65%
11:00 +11°C° 0 mm 3 mps 761 mmHg 63%
12:00 +12°C° 0 mm 3 mps 760 mmHg 61%
13:00 +13°C° 0 mm 2 mps 760 mmHg 59%
14:00 +14°C° 0 mm 2 mps 760 mmHg 57%
15:00 +14°C° 0 mm 2 mps 760 mmHg 55%
16:00 +13°C° 0 mm 2 mps 760 mmHg 61%
17:00 +13°C° 0 mm 2 mps 760 mmHg 66%
18:00 +11°C° 0 mm 3 mps 760 mmHg 71%
19:00 +12°C° 0 mm 2 mps 760 mmHg 76%
20:00 +10°C° 0 mm 2 mps 760 mmHg 80%
21:00 +9°C° 0 mm 2 mps 760 mmHg 84%
22:00 +9°C° 0 mm 2 mps 760 mmHg 84%
23:00 +10°C° 0 mm 1 mps 759 mmHg 85%

Tomorrow, 19 April, Monday

Time Temperature Precipitation Wind Pressure Humidity
00:00 +10°C° 0 mm 1 mps 759 mmHg 85%
01:00 +10°C° 0 mm 1 mps 759 mmHg 86%
02:00 +9°C° 0 mm 1 mps 759 mmHg 87%
03:00 +8°C° 0 mm 2 mps 759 mmHg 88%
04:00 +8°C° 0 mm 2 mps 759 mmHg 87%
05:00 +9°C° 0 mm 2 mps 759 mmHg 86%
06:00 +9°C° 0 mm 2 mps 759 mmHg 85%
07:00 +9°C° 0.1 mm 2 mps 759 mmHg 84%
08:00 +10°C° 0.1 mm 2 mps 759 mmHg 82%
09:00 +10°C° 0.1 mm 2 mps 759 mmHg 81%
10:00 +12°C° 0.1 mm 2 mps 759 mmHg 80%
11:00 +12°C° 0.1 mm 2 mps 759 mmHg 80%
12:00 +12°C° 0.1 mm 2 mps 758 mmHg 79%
13:00 +13°C° 0 mm 2 mps 758 mmHg 78%
14:00 +13°C° 0 mm 2 mps 758 mmHg 77%
15:00 +13°C° 0 mm 2 mps 758 mmHg 76%
16:00 +13°C° 0 mm 2 mps 758 mmHg 77%
17:00 +13°C° 0 mm 2 mps 757 mmHg 77%
18:00 +13°C° 0 mm 2 mps 757 mmHg 78%
19:00 +13°C° 0 mm 2 mps 757 mmHg 81%
20:00 +12°C° 0 mm 2 mps 757 mmHg 85%
21:00 +10°C° 0 mm 2 mps 757 mmHg 89%
22:00 +10°C° 0 mm 3 mps 756 mmHg 90%
23:00 +10°C° 0 mm 3 mps 756 mmHg 91%

Day after tomorrow, 20 April, Tuesday

Time Temperature Precipitation Wind Pressure Humidity
00:00 +10°C° 0 mm 3 mps 755 mmHg 92%
01:00 +10°C° 0 mm 4 mps 754 mmHg 93%
02:00 +9°C° 0 mm 5 mps 754 mmHg 94%
03:00 +9°C° 0 mm 5 mps 753 mmHg 94%
04:00 +10°C° 3.1 mm 5 mps 752 mmHg 95%
05:00 +10°C° 3.1 mm 5 mps 751 mmHg 97%
06:00 +10°C° 3.1 mm 5 mps 751 mmHg 98%
07:00 +10°C° 3 mm 6 mps 750 mmHg 97%
08:00 +11°C° 3 mm 7 mps 749 mmHg 96%
09:00 +12°C° 3 mm 9 mps 748 mmHg 95%
10:00 +13°C° 0.3 mm 9 mps 748 mmHg 90%
11:00 +13°C° 0.3 mm 8 mps 748 mmHg 85%
12:00 +15°C° 0.3 mm 8 mps 747 mmHg 79%
13:00 +15°C° 0.1 mm 8 mps 748 mmHg 81%
14:00 +13°C° 0.1 mm 8 mps 748 mmHg 82%
15:00 +13°C° 0.1 mm 8 mps 748 mmHg 83%
16:00 +13°C° 0 mm 9 mps 748 mmHg 83%
17:00 +12°C° 0 mm 9 mps 749 mmHg 82%
18:00 +12°C° 0 mm 9 mps 749 mmHg 82%
19:00 +11°C° 0 mm 10 mps 749 mmHg 82%
20:00 +9°C° 0 mm 11 mps 750 mmHg 83%
21:00 +8°C° 0 mm 12 mps 750 mmHg 83%
22:00 +8°C° 0.1 mm 12 mps 750 mmHg 84%
23:00 +8°C° 0.1 mm 13 mps 751 mmHg 84%

21 April, Wednesday

Time Temperature Precipitation Wind Pressure Humidity
00:00 +8°C° 0.1 mm 13 mps 751 mmHg 85%
01:00 +8°C° 0.1 mm 13 mps 751 mmHg 87%
02:00 +7°C° 0.1 mm 12 mps 752 mmHg 88%
03:00 +7°C° 0.1 mm 12 mps 753 mmHg 90%
04:00 +7°C° 0 mm 11 mps 754 mmHg 90%
05:00 +7°C° 0 mm 10 mps 755 mmHg 89%
06:00 +7°C° 0 mm 9 mps 756 mmHg 89%
07:00 +9°C° 0 mm 8 mps 757 mmHg 88%
08:00 +9°C° 0 mm 8 mps 757 mmHg 87%
09:00 +9°C° 0 mm 7 mps 758 mmHg 86%
10:00 +10°C° 0 mm 7 mps 759 mmHg 80%
11:00 +11°C° 0 mm 7 mps 759 mmHg 74%
12:00 +12°C° 0 mm 7 mps 759 mmHg 68%
13:00 +12°C° 0 mm 7 mps 759 mmHg 65%
14:00 +12°C° 0 mm 7 mps 760 mmHg 62%
15:00 +12°C° 0 mm 7 mps 760 mmHg 60%
16:00 +12°C° 0 mm 7 mps 760 mmHg 62%
17:00 +11°C° 0 mm 6 mps 761 mmHg 65%
18:00 +12°C° 0 mm 5 mps 761 mmHg 68%
19:00 +10°C° 0 mm 5 mps 761 mmHg 70%
20:00 +11°C° 0 mm 4 mps 762 mmHg 72%
21:00 +10°C° 0 mm 4 mps 762 mmHg 75%
22:00 +10°C° 0 mm 3 mps 763 mmHg 76%
23:00 +9°C° 0 mm 3 mps 763 mmHg 78%

22 April, Thursday

Time Temperature Precipitation Wind Pressure Humidity
00:00 +9°C° 0 mm 3 mps 763 mmHg 80%
01:00 +8°C° 0 mm 2 mps 763 mmHg 79%
02:00 +8°C° 0 mm 2 mps 763 mmHg 79%
03:00 +8°C° 0 mm 2 mps 763 mmHg 79%
04:00 +9°C° 0 mm 1 mps 764 mmHg 80%
05:00 +9°C° 0 mm 1 mps 764 mmHg 80%
06:00 +9°C° 0 mm 1 mps 764 mmHg 81%
07:00 +11°C° 0 mm 1 mps 764 mmHg 76%
08:00 +12°C° 0 mm 1 mps 764 mmHg 71%
09:00 +13°C° 0 mm 1 mps 764 mmHg 66%
10:00 +14°C° 0 mm 1 mps 765 mmHg 62%
11:00 +15°C° 0 mm 2 mps 765 mmHg 58%
12:00 +16°C° 0 mm 2 mps 765 mmHg 53%
13:00 +16°C° 0.1 mm 2 mps 765 mmHg 53%
14:00 +16°C° 0.1 mm 2 mps 764 mmHg 52%
15:00 +17°C° 0.1 mm 2 mps 764 mmHg 51%
16:00 +16°C° 0.1 mm 2 mps 764 mmHg 54%
17:00 +16°C° 0.1 mm 1 mps 764 mmHg 56%
18:00 +16°C° 0.1 mm 1 mps 764 mmHg 59%
19:00 +15°C° 0.2 mm 1 mps 764 mmHg 63%
20:00 +14°C° 0.2 mm 1 mps 764 mmHg 67%
21:00 +13°C° 0.2 mm 1 mps 764 mmHg 71%
22:00 +12°C° 0.2 mm 1 mps 764 mmHg 73%
23:00 +12°C° 0.2 mm 2 mps 764 mmHg 76%

23 April, Friday

Time Temperature Precipitation Wind Pressure Humidity
00:00 +10°C° 0.2 mm 2 mps 764 mmHg 78%
01:00 +10°C° 0.1 mm 2 mps 764 mmHg 82%
02:00 +10°C° 0.1 mm 3 mps 764 mmHg 86%
03:00 +9°C° 0.1 mm 3 mps 764 mmHg 89%
04:00 +9°C° 0.4 mm 3 mps 764 mmHg 92%
05:00 +9°C° 0.4 mm 2 mps 764 mmHg 94%
06:00 +9°C° 0.4 mm 2 mps 765 mmHg 96%
07:00 +10°C° 0.2 mm 2 mps 765 mmHg 90%
08:00 +11°C° 0.2 mm 3 mps 765 mmHg 83%
09:00 +13°C° 0.2 mm 3 mps 765 mmHg 77%
10:00 +14°C° 0 mm 3 mps 765 mmHg 71%
11:00 +16°C° 0 mm 3 mps 765 mmHg 65%
12:00 +17°C° 0 mm 3 mps 764 mmHg 59%
13:00 +17°C° 0.2 mm 3 mps 764 mmHg 58%
14:00 +17°C° 0.2 mm 3 mps 764 mmHg 57%
15:00 +17°C° 0.2 mm 2 mps 764 mmHg 57%
16:00 +17°C° 0.3 mm 3 mps 764 mmHg 59%
17:00 +17°C° 0.3 mm 3 mps 764 mmHg 61%
18:00 +16°C° 0.3 mm 3 mps 764 mmHg 63%
19:00 +14°C° 0.1 mm 3 mps 764 mmHg 69%
20:00 +13°C° 0.1 mm 3 mps 764 mmHg 75%
21:00 +11°C° 0.1 mm 3 mps 765 mmHg 81%
22:00 +11°C° 0 mm 3 mps 765 mmHg 83%
23:00 +10°C° 0 mm 3 mps 765 mmHg 84%
Show more